Wetterdaten: Dienstag, 10.05.2016
Datum Zeit Auen-Temp. Temp gefhlt Luftfeuchte Luftdruck Regen Wind Richtung Richtung Sonnenschein Taupunkt Windben
10.05.2016 00:00 10,0 C 9,8 C 67 % 1013,6 hPa 0,0 mm 1,2 km/h (1 Bft) SO 135 0 min 4,2 C 0,0 km/h (0 Bft)
10.05.2016 00:05 10,4 C 10,1 C 66 % 1013,6 hPa 0,0 mm 0,9 km/h (0 Bft) N 360 0 min 4,3 C 0,0 km/h (0 Bft)
10.05.2016 00:10 10,0 C 9,8 C 65 % 1013,6 hPa 0,0 mm 0,0 km/h (0 Bft) N-NO 22 0 min 3,7 C 0,0 km/h (0 Bft)
10.05.2016 00:15 9,5 C 9,5 C 68 % 1013,4 hPa 0,0 mm 0,0 km/h (0 Bft) O-NO 67 0 min 3,9 C 0,0 km/h (0 Bft)
10.05.2016 00:20 9,6 C 9,5 C 69 % 1013,4 hPa 0,0 mm 0,0 km/h (0 Bft) O-SO 112 0 min 4,2 C 0,0 km/h (0 Bft)
10.05.2016 00:25 9,9 C 9,7 C 68 % 1013,4 hPa 0,0 mm 0,0 km/h (0 Bft) NO 45 0 min 4,3 C 0,0 km/h (0 Bft)
10.05.2016 00:30 10,1 C 10,0 C 67 % 1013,4 hPa 0,0 mm 0,0 km/h (0 Bft) O-SO 112 0 min 4,3 C 0,0 km/h (0 Bft)
10.05.2016 00:35 10,6 C 10,4 C 66 % 1013,0 hPa 0,0 mm 0,0 km/h (0 Bft) NO 45 0 min 4,5 C 0,0 km/h (0 Bft)
10.05.2016 00:40 10,5 C 10,3 C 65 % 1013,0 hPa 0,0 mm 0,0 km/h (0 Bft) O-NO 67 0 min 4,2 C 0,0 km/h (0 Bft)
10.05.2016 00:45 9,9 C 9,8 C 65 % 1013,0 hPa 0,0 mm 0,0 km/h (0 Bft) N-NW 337 0 min 3,6 C 0,0 km/h (0 Bft)
10.05.2016 00:47 9,9 C 9,8 C 65 % 1013,0 hPa 0,0 mm 0,0 km/h (0 Bft) N-NO 22 0 min 3,6 C 0,0 km/h (0 Bft)
10.05.2016 00:48 9,9 C 9,8 C 65 % 1013,0 hPa 0,0 mm 0,0 km/h (0 Bft) N-NO 22 0 min 3,6 C 0,0 km/h (0 Bft)
10.05.2016 00:50 9,9 C 9,8 C 65 % 1013,0 hPa 0,0 mm 0,0 km/h (0 Bft) N-NO 22 0 min 3,6 C 0,0 km/h (0 Bft)
10.05.2016 00:55 9,5 C 9,4 C 66 % 1013,4 hPa 0,0 mm 0,0 km/h (0 Bft) N-NO 22 0 min 3,5 C 0,0 km/h (0 Bft)
10.05.2016 01:00 9,7 C 9,5 C 67 % 1013,4 hPa 0,0 mm 0,0 km/h (0 Bft) O-NO 67 0 min 3,9 C 0,0 km/h (0 Bft)
10.05.2016 01:05 9,3 C 9,1 C 67 % 1013,4 hPa 0,0 mm 0,0 km/h (0 Bft) N 360 0 min 3,5 C 0,0 km/h (0 Bft)
10.05.2016 01:10 9,6 C 9,3 C 69 % 1013,4 hPa 0,0 mm 0,0 km/h (0 Bft) O 90 0 min 4,2 C 0,0 km/h (0 Bft)
10.05.2016 01:15 9,4 C 9,1 C 69 % 1013,2 hPa 0,0 mm 0,0 km/h (0 Bft) O-NO 67 0 min 4,0 C 0,0 km/h (0 Bft)
10.05.2016 01:20 9,0 C 8,8 C 68 % 1013,2 hPa 0,0 mm 0,0 km/h (0 Bft) O-NO 67 0 min 3,4 C 0,0 km/h (0 Bft)
10.05.2016 01:25 8,7 C 8,6 C 68 % 1013,2 hPa 0,0 mm 0,0 km/h (0 Bft) N-NW 337 0 min 3,1 C 0,0 km/h (0 Bft)
10.05.2016 01:30 8,6 C 8,5 C 69 % 1013,2 hPa 0,0 mm 0,0 km/h (0 Bft) O-NO 67 0 min 3,2 C 0,0 km/h (0 Bft)
10.05.2016 01:35 8,6 C 8,4 C 69 % 1012,9 hPa 0,0 mm 0,0 km/h (0 Bft) O-NO 67 0 min 3,2 C 0,0 km/h (0 Bft)
10.05.2016 01:40 8,5 C 8,3 C 69 % 1012,9 hPa 0,0 mm 0,0 km/h (0 Bft) NW 315 0 min 3,1 C 0,0 km/h (0 Bft)
10.05.2016 01:45 8,3 C 8,2 C 69 % 1012,9 hPa 0,0 mm 0,0 km/h (0 Bft) N-NW 337 0 min 3,0 C 0,0 km/h (0 Bft)
10.05.2016 01:50 8,2 C 8,1 C 70 % 1012,9 hPa 0,0 mm 0,0 km/h (0 Bft) NO 45 0 min 3,1 C 0,0 km/h (0 Bft)
10.05.2016 01:55 7,9 C 7,8 C 70 % 1012,8 hPa 0,0 mm 0,0 km/h (0 Bft) N-NO 22 0 min 2,8 C 0,0 km/h (0 Bft)
10.05.2016 02:00 8,1 C 7,9 C 71 % 1012,8 hPa 0,0 mm 0,0 km/h (0 Bft) O-SO 112 0 min 3,2 C 0,0 km/h (0 Bft)
10.05.2016 02:05 8,1 C 7,9 C 71 % 1012,8 hPa 0,0 mm 0,0 km/h (0 Bft) NO 45 0 min 3,2 C 0,0 km/h (0 Bft)
10.05.2016 02:10 7,9 C 7,8 C 71 % 1012,8 hPa 0,0 mm 0,0 km/h (0 Bft) NO 45 0 min 3,0 C 0,0 km/h (0 Bft)
10.05.2016 02:15 8,5 C 8,2 C 73 % 1012,8 hPa 0,0 mm 0,0 km/h (0 Bft) O-SO 112 0 min 3,9 C 0,0 km/h (0 Bft)
10.05.2016 02:20 8,7 C 8,4 C 73 % 1012,8 hPa 0,0 mm 0,0 km/h (0 Bft) NW 315 0 min 4,1 C 0,0 km/h (0 Bft)
10.05.2016 02:25 8,4 C 8,2 C 73 % 1012,8 hPa 0,0 mm 0,0 km/h (0 Bft) O-NO 67 0 min 3,8 C 0,0 km/h (0 Bft)
10.05.2016 02:30 8,1 C 8,0 C 72 % 1012,8 hPa 0,0 mm 0,0 km/h (0 Bft) N-NW 337 0 min 3,4 C 0,0 km/h (0 Bft)
10.05.2016 02:35 8,0 C 8,0 C 72 % 1012,6 hPa 0,0 mm 0,0 km/h (0 Bft) O-NO 67 0 min 3,3 C 0,0 km/h (0 Bft)
10.05.2016 02:40 8,2 C 8,1 C 73 % 1012,6 hPa 0,0 mm 0,0 km/h (0 Bft) O-NO 67 0 min 3,7 C 0,0 km/h (0 Bft)
10.05.2016 02:45 8,3 C 8,2 C 74 % 1012,6 hPa 0,0 mm 0,0 km/h (0 Bft) O-SO 112 0 min 3,9 C 0,0 km/h (0 Bft)
10.05.2016 02:50 8,5 C 8,5 C 70 % 1012,6 hPa 0,0 mm 0,3 km/h (0 Bft) O 90 0 min 3,3 C 0,0 km/h (0 Bft)
10.05.2016 02:55 8,3 C 8,5 C 73 % 1012,4 hPa 0,0 mm 0,3 km/h (0 Bft) NO 45 0 min 3,8 C 3,6 km/h (1 Bft)
10.05.2016 03:00 8,3 C 8,5 C 73 % 1012,4 hPa 0,0 mm 0,0 km/h (0 Bft) S 180 0 min 3,8 C 0,0 km/h (0 Bft)
10.05.2016 03:05 8,8 C 8,8 C 71 % 1012,4 hPa 0,0 mm 0,0 km/h (0 Bft) S 180 0 min 3,8 C 3,3 km/h (1 Bft)
10.05.2016 03:10 9,2 C 9,3 C 71 % 1012,4 hPa 0,0 mm 0,0 km/h (0 Bft) N-NO 22 0 min 4,2 C 0,0 km/h (0 Bft)
10.05.2016 03:15 8,5 C 8,9 C 72 % 1012,4 hPa 0,0 mm 0,0 km/h (0 Bft) N-NO 22 0 min 3,7 C 0,0 km/h (0 Bft)
10.05.2016 03:20 8,1 C 8,5 C 72 % 1012,4 hPa 0,0 mm 0,0 km/h (0 Bft) NO 45 0 min 3,4 C 0,0 km/h (0 Bft)
10.05.2016 03:25 8,1 C 8,1 C 75 % 1012,4 hPa 0,0 mm 0,0 km/h (0 Bft) NO 45 0 min 3,9 C 0,0 km/h (0 Bft)
10.05.2016 03:30 8,1 C 8,0 C 75 % 1012,4 hPa 0,0 mm 0,3 km/h (0 Bft) O-NO 67 0 min 3,9 C 0,0 km/h (0 Bft)
10.05.2016 03:35 8,7 C 8,7 C 72 % 1012,2 hPa 0,0 mm 2,4 km/h (1 Bft) SW 225 0 min 3,9 C 13,1 km/h (3 Bft)
10.05.2016 03:40 8,9 C 8,9 C 75 % 1012,2 hPa 0,0 mm 2,7 km/h (1 Bft) S-SO 157 0 min 4,7 C 4,5 km/h (1 Bft)
10.05.2016 03:45 8,6 C 9,2 C 74 % 1012,2 hPa 0,0 mm 0,9 km/h (0 Bft) W 270 0 min 4,2 C 0,0 km/h (0 Bft)
10.05.2016 03:47 8,6 C 9,3 C 74 % 1012,2 hPa 0,0 mm 0,3 km/h (0 Bft) NO 45 0 min 4,2 C 0,0 km/h (0 Bft)
10.05.2016 03:49 8,6 C 9,3 C 74 % 1012,2 hPa 0,0 mm 0,3 km/h (0 Bft) NO 45 0 min 4,2 C 0,0 km/h (0 Bft)
10.05.2016 03:50 8,6 C 9,3 C 74 % 1012,2 hPa 0,0 mm 0,3 km/h (0 Bft) NO 45 0 min 4,2 C 0,0 km/h (0 Bft)
10.05.2016 03:55 8,6 C 9,2 C 75 % 1012,0 hPa 0,0 mm 0,0 km/h (0 Bft) NO 45 0 min 4,4 C 0,0 km/h (0 Bft)
10.05.2016 04:00 8,7 C 9,1 C 75 % 1012,0 hPa 0,0 mm 0,0 km/h (0 Bft) NO 45 0 min 4,5 C 0,0 km/h (0 Bft)
10.05.2016 04:05 8,8 C 9,1 C 72 % 1012,0 hPa 0,0 mm 0,0 km/h (0 Bft) O-NO 67 0 min 4,0 C 0,0 km/h (0 Bft)
10.05.2016 04:10 8,9 C 9,1 C 72 % 1012,0 hPa 0,0 mm 0,0 km/h (0 Bft) N-NO 22 0 min 4,1 C 0,0 km/h (0 Bft)
10.05.2016 04:15 9,0 C 9,3 C 72 % 1011,9 hPa 0,0 mm 0,0 km/h (0 Bft) N-NO 22 0 min 4,2 C 0,0 km/h (0 Bft)
10.05.2016 04:20 9,2 C 9,4 C 72 % 1011,9 hPa 0,0 mm 0,0 km/h (0 Bft) NO 45 0 min 4,4 C 0,0 km/h (0 Bft)
10.05.2016 04:25 9,3 C 9,4 C 71 % 1011,9 hPa 0,0 mm 0,0 km/h (0 Bft) N-NO 22 0 min 4,3 C 0,0 km/h (0 Bft)
10.05.2016 04:30 9,3 C 9,5 C 71 % 1011,9 hPa 0,0 mm 0,0 km/h (0 Bft) NO 45 0 min 4,3 C 0,0 km/h (0 Bft)
10.05.2016 04:35 9,5 C 9,6 C 71 % 1011,8 hPa 0,0 mm 0,0 km/h (0 Bft) N-NO 22 0 min 4,5 C 0,0 km/h (0 Bft)
10.05.2016 04:40 9,4 C 9,5 C 73 % 1011,8 hPa 0,0 mm 0,0 km/h (0 Bft) N-NO 22 0 min 4,8 C 0,0 km/h (0 Bft)
10.05.2016 04:45 9,3 C 9,4 C 73 % 1011,8 hPa 0,0 mm 0,0 km/h (0 Bft) W-NW 292 0 min 4,7 C 0,0 km/h (0 Bft)
10.05.2016 04:50 9,3 C 9,4 C 73 % 1011,8 hPa 0,0 mm 0,0 km/h (0 Bft) N-NO 22 0 min 4,7 C 0,0 km/h (0 Bft)
10.05.2016 04:55 9,4 C 9,4 C 74 % 1011,8 hPa 0,0 mm 0,0 km/h (0 Bft) SO 135 0 min 5,0 C 0,0 km/h (0 Bft)
10.05.2016 05:00 9,4 C 9,5 C 74 % 1011,8 hPa 0,0 mm 0,0 km/h (0 Bft) N-NO 22 0 min 5,0 C 0,0 km/h (0 Bft)
10.05.2016 05:05 9,4 C 9,6 C 74 % 1011,8 hPa 0,0 mm 0,0 km/h (0 Bft) N-NO 22 0 min 5,0 C 0,0 km/h (0 Bft)
10.05.2016 05:10 9,4 C 9,4 C 74 % 1011,8 hPa 0,0 mm 0,0 km/h (0 Bft) NO 45 0 min 5,0 C 0,0 km/h (0 Bft)
10.05.2016 05:15 9,5 C 9,5 C 75 % 1011,5 hPa 0,0 mm 0,0 km/h (0 Bft) O-NO 67 0 min 5,3 C 0,0 km/h (0 Bft)
10.05.2016 05:20 9,5 C 9,5 C 75 % 1011,5 hPa 0,0 mm 0,0 km/h (0 Bft) O-NO 67 0 min 5,3 C 0,0 km/h (0 Bft)
10.05.2016 05:25 9,5 C 9,4 C 75 % 1011,5 hPa 0,0 mm 0,0 km/h (0 Bft) O-NO 67 0 min 5,3 C 0,0 km/h (0 Bft)
10.05.2016 05:30 9,8 C 9,6 C 74 % 1011,5 hPa 0,0 mm 0,0 km/h (0 Bft) S-SO 157 0 min 5,4 C 0,0 km/h (0 Bft)
10.05.2016 05:35 10,4 C 10,2 C 71 % 1011,2 hPa 0,0 mm 0,0 km/h (0 Bft) O-SO 112 0 min 5,4 C 0,0 km/h (0 Bft)
10.05.2016 05:40 10,6 C 10,4 C 70 % 1011,2 hPa 0,0 mm 0,0 km/h (0 Bft) NO 45 0 min 5,4 C 0,0 km/h (0 Bft)
10.05.2016 05:45 9,9 C 10,0 C 70 % 1011,2 hPa 0,0 mm 0,0 km/h (0 Bft) NW 315 0 min 4,7 C 0,0 km/h (0 Bft)
10.05.2016 05:50 9,7 C 9,8 C 70 % 1011,2 hPa 0,0 mm 0,0 km/h (0 Bft) N 360 0 min 4,5 C 0,0 km/h (0 Bft)
10.05.2016 05:55 9,7 C 9,7 C 71 % 1011,2 hPa 0,0 mm 0,0 km/h (0 Bft) O-NO 67 0 min 4,7 C 0,0 km/h (0 Bft)
10.05.2016 06:00 9,7 C 9,7 C 72 % 1011,2 hPa 0,0 mm 0,0 km/h (0 Bft) O-SO 112 0 min 4,9 C 0,0 km/h (0 Bft)
10.05.2016 06:05 9,7 C 9,8 C 72 % 1011,2 hPa 0,0 mm 0,0 km/h (0 Bft) SW 225 0 min 4,9 C 0,0 km/h (0 Bft)
10.05.2016 06:10 9,8 C 10,3 C 71 % 1011,2 hPa 0,0 mm 0,0 km/h (0 Bft) NO 45 0 min 4,8 C 0,0 km/h (0 Bft)
10.05.2016 06:15 9,7 C 10,4 C 72 % 1011,3 hPa 0,0 mm 0,0 km/h (0 Bft) NO 45 0 min 4,9 C 0,0 km/h (0 Bft)
10.05.2016 06:20 9,7 C 10,3 C 72 % 1011,3 hPa 0,0 mm 0,0 km/h (0 Bft) N-NO 22 0 min 4,9 C 0,0 km/h (0 Bft)
10.05.2016 06:25 9,6 C 10,1 C 73 % 1011,3 hPa 0,0 mm 0,0 km/h (0 Bft) NO 45 0 min 5,0 C 0,0 km/h (0 Bft)
10.05.2016 06:30 9,6 C 10,0 C 73 % 1011,3 hPa 0,0 mm 0,0 km/h (0 Bft) O-NO 67 0 min 5,0 C 0,0 km/h (0 Bft)
10.05.2016 06:35 9,6 C 9,9 C 72 % 1011,2 hPa 0,0 mm 0,0 km/h (0 Bft) O-NO 67 0 min 4,8 C 0,0 km/h (0 Bft)
10.05.2016 06:40 9,6 C 10,0 C 72 % 1011,2 hPa 0,0 mm 0,0 km/h (0 Bft) N-NO 22 0 min 4,8 C 0,0 km/h (0 Bft)
10.05.2016 06:45 9,8 C 10,2 C 73 % 1011,2 hPa 0,0 mm 0,0 km/h (0 Bft) N-NO 22 0 min 5,2 C 0,0 km/h (0 Bft)
10.05.2016 06:47 9,9 C 10,3 C 73 % 1011,2 hPa 0,0 mm 0,0 km/h (0 Bft) O-NO 67 0 min 5,3 C 0,0 km/h (0 Bft)
10.05.2016 06:50 9,9 C 10,3 C 73 % 1011,2 hPa 0,0 mm 0,0 km/h (0 Bft) O-NO 67 0 min 5,3 C 0,0 km/h (0 Bft)
10.05.2016 06:55 10,2 C 10,6 C 73 % 1011,2 hPa 0,0 mm 0,0 km/h (0 Bft) NW 315 0 min 5,6 C 0,0 km/h (0 Bft)
10.05.2016 07:00 10,3 C 10,9 C 73 % 1011,2 hPa 0,0 mm 0,0 km/h (0 Bft) N-NO 22 0 min 5,7 C 0,0 km/h (0 Bft)
10.05.2016 07:05 10,5 C 11,4 C 73 % 1011,2 hPa 0,0 mm 0,0 km/h (0 Bft) S-SO 157 0 min 5,9 C 0,0 km/h (0 Bft)
10.05.2016 07:10 10,7 C 11,7 C 73 % 1011,2 hPa 0,0 mm 0,0 km/h (0 Bft) N-NO 22 0 min 6,1 C 0,0 km/h (0 Bft)
10.05.2016 07:15 10,9 C 12,2 C 73 % 1011,1 hPa 0,0 mm 0,0 km/h (0 Bft) N-NO 22 0 min 6,3 C 0,0 km/h (0 Bft)
10.05.2016 07:20 11,1 C 12,6 C 72 % 1011,1 hPa 0,0 mm 0,0 km/h (0 Bft) NO 45 0 min 6,2 C 0,0 km/h (0 Bft)
10.05.2016 07:25 11,4 C 13,1 C 72 % 1011,1 hPa 0,0 mm 0,0 km/h (0 Bft) N-NO 22 0 min 6,5 C 0,0 km/h (0 Bft)
10.05.2016 07:30 11,6 C 13,3 C 72 % 1011,1 hPa 0,0 mm 0,0 km/h (0 Bft) NW 315 0 min 6,7 C 0,0 km/h (0 Bft)
10.05.2016 07:35 11,7 C 13,3 C 73 % 1011,1 hPa 0,0 mm 0,0 km/h (0 Bft) N-NO 22 0 min 7,0 C 0,0 km/h (0 Bft)
10.05.2016 07:40 11,9 C 13,4 C 73 % 1011,1 hPa 0,0 mm 0,0 km/h (0 Bft) N-NW 337 0 min 7,2 C 0,0 km/h (0 Bft)
10.05.2016 07:45 12,3 C 14,1 C 73 % 1011,1 hPa 0,0 mm 0,0 km/h (0 Bft) W-SW 247 0 min 7,6 C 0,0 km/h (0 Bft)
10.05.2016 07:50 12,6 C 15,0 C 73 % 1011,1 hPa 0,0 mm 0,0 km/h (0 Bft) N-NO 22 0 min 7,9 C 0,0 km/h (0 Bft)
10.05.2016 07:55 13,2 C 16,5 C 72 % 1011,0 hPa 0,0 mm 0,0 km/h (0 Bft) O 90 5 min 8,3 C 0,0 km/h (0 Bft)
10.05.2016 08:00 13,3 C 16,8 C 71 % 1011,0 hPa 0,0 mm 0,0 km/h (0 Bft) NO 45 5 min 8,2 C 0,0 km/h (0 Bft)
10.05.2016 08:05 13,8 C 17,1 C 70 % 1011,0 hPa 0,0 mm 0,0 km/h (0 Bft) N 360 5 min 8,4 C 0,0 km/h (0 Bft)
10.05.2016 08:10 14,0 C 17,4 C 70 % 1011,0 hPa 0,0 mm 0,0 km/h (0 Bft) O-NO 67 5 min 8,6 C 0,0 km/h (0 Bft)
10.05.2016 08:15 14,4 C 17,9 C 69 % 1011,1 hPa 0,0 mm 0,0 km/h (0 Bft) NO 45 5 min 8,8 C 0,0 km/h (0 Bft)
10.05.2016 08:20 14,9 C 19,0 C 69 % 1011,1 hPa 0,0 mm 0,0 km/h (0 Bft) O-NO 67 5 min 9,3 C 0,0 km/h (0 Bft)
10.05.2016 08:25 15,5 C 20,2 C 67 % 1011,1 hPa 0,0 mm 0,0 km/h (0 Bft) O 90 5 min 9,4 C 0,0 km/h (0 Bft)
10.05.2016 08:30 15,8 C 20,6 C 66 % 1011,1 hPa 0,0 mm 0,0 km/h (0 Bft) O 90 5 min 9,5 C 0,0 km/h (0 Bft)
10.05.2016 08:35 16,2 C 21,4 C 63 % 1011,1 hPa 0,0 mm 0,0 km/h (0 Bft) NO 45 5 min 9,1 C 0,0 km/h (0 Bft)
10.05.2016 08:40 16,5 C 21,8 C 62 % 1011,1 hPa 0,0 mm 0,0 km/h (0 Bft) NW 315 5 min 9,2 C 0,0 km/h (0 Bft)
10.05.2016 08:45 16,7 C 21,6 C 61 % 1011,1 hPa 0,0 mm 0,0 km/h (0 Bft) O-NO 67 5 min 9,1 C 0,0 km/h (0 Bft)
10.05.2016 08:50 16,7 C 21,1 C 60 % 1011,1 hPa 0,0 mm 0,0 km/h (0 Bft) N-NO 22 5 min 8,9 C 0,0 km/h (0 Bft)
10.05.2016 08:55 16,9 C 21,0 C 60 % 1011,2 hPa 0,0 mm 0,9 km/h (0 Bft) N-NO 22 5 min 9,1 C 0,0 km/h (0 Bft)
10.05.2016 09:00 17,3 C 21,4 C 59 % 1011,2 hPa 0,0 mm 0,9 km/h (0 Bft) NW 315 5 min 9,2 C 0,0 km/h (0 Bft)
10.05.2016 09:05 17,4 C 21,9 C 57 % 1011,2 hPa 0,0 mm 1,2 km/h (1 Bft) N 360 5 min 8,8 C 0,0 km/h (0 Bft)
10.05.2016 09:10 17,5 C 22,0 C 57 % 1011,2 hPa 0,0 mm 0,9 km/h (0 Bft) N-NO 22 5 min 8,9 C 0,0 km/h (0 Bft)
10.05.2016 09:15 17,2 C 21,2 C 56 % 1011,2 hPa 0,0 mm 1,5 km/h (1 Bft) O-NO 67 5 min 8,3 C 0,0 km/h (0 Bft)
10.05.2016 09:20 17,2 C 21,0 C 57 % 1011,2 hPa 0,0 mm 1,8 km/h (1 Bft) NO 45 5 min 8,6 C 3,3 km/h (1 Bft)
10.05.2016 09:25 17,3 C 20,5 C 56 % 1011,2 hPa 0,0 mm 2,1 km/h (1 Bft) NW 315 5 min 8,4 C 3,9 km/h (1 Bft)
10.05.2016 09:30 17,5 C 20,5 C 56 % 1011,2 hPa 0,0 mm 1,8 km/h (1 Bft) N-NO 22 5 min 8,6 C 0,0 km/h (0 Bft)
10.05.2016 09:35 17,6 C 20,5 C 55 % 1011,3 hPa 0,0 mm 1,2 km/h (1 Bft) NW 315 0 min 8,5 C 3,0 km/h (1 Bft)
10.05.2016 09:40 17,7 C 20,5 C 55 % 1011,3 hPa 0,0 mm 1,2 km/h (1 Bft) N-NO 22 0 min 8,5 C 0,0 km/h (0 Bft)
10.05.2016 09:45 17,4 C 20,2 C 53 % 1011,3 hPa 0,0 mm 2,7 km/h (1 Bft) O-NO 67 5 min 7,7 C 7,2 km/h (2 Bft)
10.05.2016 09:47 17,2 C 19,7 C 53 % 1011,3 hPa 0,0 mm 2,7 km/h (1 Bft) N-NO 22 0 min 7,5 C 0,0 km/h (0 Bft)
10.05.2016 09:51 17,2 C 19,7 C 53 % 1011,3 hPa 0,0 mm 2,7 km/h (1 Bft) N-NO 22 0 min 7,5 C 0,0 km/h (0 Bft)
10.05.2016 09:55 17,3 C 19,9 C 54 % 1011,2 hPa 0,0 mm 1,2 km/h (1 Bft) NW 315 0 min 7,9 C 0,0 km/h (0 Bft)
10.05.2016 10:00 17,4 C 19,8 C 54 % 1011,2 hPa 0,0 mm 0,6 km/h (0 Bft) NO 45 0 min 8,0 C 0,0 km/h (0 Bft)
10.05.2016 10:05 17,3 C 19,6 C 55 % 1011,2 hPa 0,0 mm 2,7 km/h (1 Bft) NO 45 0 min 8,2 C 6,9 km/h (2 Bft)
10.05.2016 10:10 17,3 C 19,5 C 56 % 1011,2 hPa 0,0 mm 3,6 km/h (1 Bft) O-NO 67 0 min 8,4 C 0,0 km/h (0 Bft)
10.05.2016 10:15 17,5 C 19,7 C 56 % 1011,1 hPa 0,0 mm 5,1 km/h (1 Bft) NO 45 0 min 8,6 C 13,7 km/h (3 Bft)
10.05.2016 10:20 17,5 C 19,7 C 56 % 1011,1 hPa 0,0 mm 6,0 km/h (2 Bft) NO 45 0 min 8,6 C 11,6 km/h (2 Bft)
10.05.2016 10:25 17,4 C 19,7 C 55 % 1011,1 hPa 0,0 mm 8,6 km/h (2 Bft) N-NO 22 0 min 8,3 C 5,7 km/h (1 Bft)
10.05.2016 10:30 17,4 C 19,7 C 55 % 1011,1 hPa 0,0 mm 8,9 km/h (2 Bft) N-NO 22 0 min 8,3 C 10,1 km/h (2 Bft)
10.05.2016 10:35 17,5 C 19,8 C 55 % 1010,9 hPa 0,0 mm 8,0 km/h (2 Bft) O-NO 67 0 min 8,4 C 14,0 km/h (3 Bft)
10.05.2016 10:40 17,5 C 19,8 C 55 % 1010,9 hPa 0,0 mm 8,3 km/h (2 Bft) N-NO 22 0 min 8,4 C 5,7 km/h (1 Bft)
10.05.2016 10:45 17,7 C 20,2 C 55 % 1010,9 hPa 0,0 mm 7,5 km/h (2 Bft) N 360 0 min 8,5 C 14,6 km/h (3 Bft)
10.05.2016 10:50 17,8 C 20,4 C 55 % 1010,9 hPa 0,0 mm 6,9 km/h (2 Bft) NO 45 0 min 8,6 C 6,6 km/h (2 Bft)
10.05.2016 10:55 17,9 C 20,4 C 55 % 1010,8 hPa 0,0 mm 7,5 km/h (2 Bft) O-NO 67 0 min 8,7 C 7,5 km/h (2 Bft)
10.05.2016 11:00 17,9 C 20,3 C 56 % 1010,8 hPa 0,0 mm 6,9 km/h (2 Bft) N-NO 22 0 min 9,0 C 7,2 km/h (2 Bft)
10.05.2016 11:05 18,0 C 20,3 C 56 % 1010,8 hPa 0,0 mm 6,6 km/h (2 Bft) O-NO 67 0 min 9,1 C 10,4 km/h (2 Bft)
10.05.2016 11:10 18,0 C 20,2 C 56 % 1010,8 hPa 0,0 mm 7,2 km/h (2 Bft) NO 45 0 min 9,1 C 8,6 km/h (2 Bft)
10.05.2016 11:15 18,1 C 20,5 C 55 % 1010,9 hPa 0,0 mm 8,0 km/h (2 Bft) N-NO 22 0 min 8,9 C 10,1 km/h (2 Bft)
10.05.2016 11:20 18,1 C 20,6 C 55 % 1010,9 hPa 0,0 mm 8,0 km/h (2 Bft) O-SO 112 0 min 8,9 C 14,6 km/h (3 Bft)
10.05.2016 11:25 18,2 C 20,8 C 55 % 1010,9 hPa 0,0 mm 8,3 km/h (2 Bft) O-NO 67 0 min 9,0 C 16,1 km/h (3 Bft)
10.05.2016 11:30 18,2 C 20,8 C 55 % 1010,9 hPa 0,0 mm 8,3 km/h (2 Bft) N-NO 22 0 min 9,0 C 0,0 km/h (0 Bft)
10.05.2016 11:35 18,4 C 21,1 C 55 % 1010,9 hPa 0,0 mm 8,0 km/h (2 Bft) N-NO 22 0 min 9,2 C 8,3 km/h (2 Bft)
10.05.2016 11:40 18,6 C 21,5 C 55 % 1010,9 hPa 0,0 mm 7,2 km/h (2 Bft) O-SO 112 0 min 9,4 C 5,7 km/h (1 Bft)
10.05.2016 11:45 18,8 C 21,6 C 55 % 1010,9 hPa 0,0 mm 9,2 km/h (2 Bft) NO 45 0 min 9,6 C 9,8 km/h (2 Bft)
10.05.2016 11:50 18,9 C 21,9 C 55 % 1010,9 hPa 0,0 mm 8,9 km/h (2 Bft) O-NO 67 0 min 9,7 C 6,3 km/h (2 Bft)
10.05.2016 11:55 19,3 C 22,5 C 55 % 1010,9 hPa 0,0 mm 7,7 km/h (2 Bft) N-NO 22 0 min 10,0 C 8,0 km/h (2 Bft)
10.05.2016 12:00 19,3 C 22,5 C 55 % 1010,9 hPa 0,0 mm 7,2 km/h (2 Bft) N-NO 22 0 min 10,0 C 0,0 km/h (0 Bft)
10.05.2016 12:05 19,2 C 22,3 C 55 % 1010,9 hPa 0,0 mm 8,0 km/h (2 Bft) NO 45 0 min 9,9 C 20,9 km/h (4 Bft)
10.05.2016 12:10 19,1 C 22,2 C 55 % 1010,9 hPa 0,0 mm 8,6 km/h (2 Bft) NO 45 0 min 9,8 C 13,7 km/h (3 Bft)
10.05.2016 12:15 19,1 C 21,9 C 55 % 1010,9 hPa 0,0 mm 8,9 km/h (2 Bft) NO 45 0 min 9,8 C 8,6 km/h (2 Bft)
10.05.2016 12:20 19,1 C 21,9 C 55 % 1010,9 hPa 0,0 mm 8,6 km/h (2 Bft) O-NO 67 0 min 9,8 C 12,2 km/h (2 Bft)
10.05.2016 12:25 19,1 C 21,8 C 55 % 1010,9 hPa 0,0 mm 8,9 km/h (2 Bft) NO 45 0 min 9,8 C 10,7 km/h (2 Bft)
10.05.2016 12:30 19,1 C 21,7 C 55 % 1010,9 hPa 0,0 mm 9,5 km/h (2 Bft) N-NO 22 0 min 9,8 C 17,9 km/h (3 Bft)
10.05.2016 12:35 19,2 C 21,7 C 55 % 1011,1 hPa 0,0 mm 7,7 km/h (2 Bft) N-NO 22 0 min 9,9 C 8,6 km/h (2 Bft)
10.05.2016 12:40 19,5 C 22,2 C 56 % 1011,1 hPa 0,0 mm 5,7 km/h (1 Bft) N-NO 22 0 min 10,5 C 5,4 km/h (1 Bft)
10.05.2016 12:45 19,7 C 22,5 C 55 % 1011,1 hPa 0,0 mm 6,9 km/h (2 Bft) N-NO 22 0 min 10,4 C 22,7 km/h (4 Bft)
10.05.2016 12:50 19,6 C 22,4 C 54 % 1011,1 hPa 0,0 mm 8,0 km/h (2 Bft) W 270 0 min 10,0 C 0,0 km/h (0 Bft)
10.05.2016 12:52 19,6 C 22,4 C 54 % 1011,1 hPa 0,0 mm 8,0 km/h (2 Bft) W 270 0 min 10,0 C 0,0 km/h (0 Bft)
10.05.2016 12:55 20,1 C 22,9 C 52 % 1010,9 hPa 0,0 mm 8,0 km/h (2 Bft) O-NO 67 0 min 9,9 C 12,8 km/h (3 Bft)
10.05.2016 13:00 20,2 C 23,1 C 49 % 1010,9 hPa 0,0 mm 6,9 km/h (2 Bft) NO 45 0 min 9,1 C 11,3 km/h (2 Bft)
10.05.2016 13:05 20,6 C 23,7 C 50 % 1010,9 hPa 0,0 mm 5,1 km/h (1 Bft) N-NO 22 5 min 9,8 C 5,4 km/h (1 Bft)
10.05.2016 13:10 20,5 C 23,5 C 49 % 1010,9 hPa 0,0 mm 5,7 km/h (1 Bft) NO 45 5 min 9,4 C 6,9 km/h (2 Bft)
10.05.2016 13:15 20,4 C 23,1 C 49 % 1010,9 hPa 0,0 mm 6,0 km/h (2 Bft) W 270 0 min 9,3 C 3,0 km/h (1 Bft)
10.05.2016 13:20 20,5 C 23,2 C 48 % 1010,9 hPa 0,0 mm 4,2 km/h (1 Bft) NO 45 0 min 9,1 C 5,7 km/h (1 Bft)
10.05.2016 13:25 20,6 C 23,3 C 48 % 1010,9 hPa 0,0 mm 5,1 km/h (1 Bft) N 360 0 min 9,2 C 8,3 km/h (2 Bft)
10.05.2016 13:30 20,4 C 22,9 C 48 % 1010,9 hPa 0,0 mm 7,5 km/h (2 Bft) NO 45 0 min 9,0 C 21,5 km/h (4 Bft)
10.05.2016 13:35 19,9 C 21,8 C 50 % 1011,0 hPa 0,0 mm 7,5 km/h (2 Bft) O 90 0 min 9,2 C 15,2 km/h (3 Bft)
10.05.2016 13:40 19,6 C 21,2 C 50 % 1011,0 hPa 0,0 mm 5,7 km/h (1 Bft) W-SW 247 0 min 8,9 C 0,0 km/h (0 Bft)
10.05.2016 13:45 19,3 C 20,2 C 51 % 1011,0 hPa 0,0 mm 4,5 km/h (1 Bft) W 270 0 min 8,9 C 6,9 km/h (2 Bft)
10.05.2016 13:50 18,8 C 18,9 C 53 % 1011,0 hPa 0,0 mm 3,6 km/h (1 Bft) W-NW 292 0 min 9,0 C 7,2 km/h (2 Bft)
10.05.2016 13:55 17,9 C 17,4 C 58 % 1011,5 hPa 0,0 mm 5,4 km/h (1 Bft) NW 315 0 min 9,5 C 6,3 km/h (2 Bft)
10.05.2016 14:00 17,5 C 16,9 C 61 % 1011,5 hPa 0,0 mm 6,6 km/h (2 Bft) NW 315 0 min 9,9 C 11,3 km/h (2 Bft)
10.05.2016 14:05 17,5 C 16,9 C 62 % 1011,5 hPa 0,0 mm 8,0 km/h (2 Bft) NW 315 0 min 10,1 C 16,7 km/h (3 Bft)
10.05.2016 14:10 17,6 C 17,5 C 60 % 1011,5 hPa 0,0 mm 9,5 km/h (2 Bft) N-NW 337 0 min 9,7 C 11,3 km/h (2 Bft)
10.05.2016 14:15 17,9 C 18,0 C 62 % 1011,5 hPa 0,0 mm 8,3 km/h (2 Bft) NO 45 0 min 10,5 C 10,1 km/h (2 Bft)
10.05.2016 14:20 18,0 C 18,6 C 62 % 1011,5 hPa 0,0 mm 6,9 km/h (2 Bft) NO 45 0 min 10,6 C 8,6 km/h (2 Bft)
10.05.2016 14:25 18,7 C 20,0 C 61 % 1011,5 hPa 0,0 mm 5,1 km/h (1 Bft) O-NO 67 0 min 11,0 C 9,8 km/h (2 Bft)
10.05.2016 14:30 19,0 C 21,2 C 60 % 1011,5 hPa 0,0 mm 5,1 km/h (1 Bft) N-NW 337 0 min 11,1 C 5,4 km/h (1 Bft)
10.05.2016 14:35 19,3 C 22,3 C 60 % 1011,4 hPa 0,0 mm 5,1 km/h (1 Bft) NO 45 0 min 11,3 C 13,1 km/h (3 Bft)
10.05.2016 14:40 19,3 C 22,5 C 59 % 1011,4 hPa 0,0 mm 5,1 km/h (1 Bft) N-NO 22 0 min 11,1 C 8,9 km/h (2 Bft)
10.05.2016 14:45 19,3 C 22,6 C 58 % 1011,4 hPa 0,0 mm 5,1 km/h (1 Bft) O 90 5 min 10,8 C 3,9 km/h (1 Bft)
10.05.2016 14:50 19,2 C 22,3 C 58 % 1011,4 hPa 0,0 mm 4,5 km/h (1 Bft) W 270 5 min 10,7 C 10,7 km/h (2 Bft)
10.05.2016 14:55 19,0 C 21,7 C 59 % 1011,4 hPa 0,0 mm 8,0 km/h (2 Bft) W-NW 292 0 min 10,8 C 11,0 km/h (2 Bft)
10.05.2016 15:00 19,0 C 21,4 C 59 % 1011,4 hPa 0,0 mm 8,9 km/h (2 Bft) NW 315 0 min 10,8 C 11,0 km/h (2 Bft)
10.05.2016 15:05 19,2 C 21,4 C 59 % 1011,4 hPa 0,0 mm 8,0 km/h (2 Bft) N-NO 22 0 min 11,0 C 6,0 km/h (2 Bft)
10.05.2016 15:10 19,4 C 22,0 C 59 % 1011,4 hPa 0,0 mm 6,6 km/h (2 Bft) NW 315 0 min 11,2 C 8,6 km/h (2 Bft)
10.05.2016 15:15 19,4 C 22,3 C 58 % 1011,4 hPa 0,0 mm 5,7 km/h (1 Bft) NW 315 0 min 10,9 C 10,1 km/h (2 Bft)
10.05.2016 15:20 19,3 C 22,2 C 57 % 1011,4 hPa 0,0 mm 7,5 km/h (2 Bft) NO 45 0 min 10,6 C 7,2 km/h (2 Bft)
10.05.2016 15:25 19,3 C 22,1 C 57 % 1011,4 hPa 0,0 mm 6,3 km/h (2 Bft) O-NO 67 0 min 10,6 C 0,0 km/h (0 Bft)
10.05.2016 15:30 19,3 C 22,0 C 57 % 1011,4 hPa 0,0 mm 5,7 km/h (1 Bft) N-NO 22 0 min 10,6 C 9,2 km/h (2 Bft)
10.05.2016 15:35 19,1 C 21,4 C 57 % 1011,4 hPa 0,0 mm 5,1 km/h (1 Bft) N-NO 22 0 min 10,4 C 8,0 km/h (2 Bft)
10.05.2016 15:40 19,0 C 21,0 C 57 % 1011,4 hPa 0,0 mm 6,9 km/h (2 Bft) N 360 0 min 10,3 C 15,8 km/h (3 Bft)
10.05.2016 15:45 18,9 C 20,3 C 57 % 1011,4 hPa 0,0 mm 10,7 km/h (2 Bft) N-NO 22 0 min 10,2 C 14,6 km/h (3 Bft)
10.05.2016 15:50 18,6 C 19,8 C 57 % 1011,4 hPa 0,0 mm 11,0 km/h (2 Bft) W-NW 292 0 min 9,9 C 5,1 km/h (1 Bft)
10.05.2016 15:52 18,3 C 19,2 C 58 % 1011,8 hPa 0,0 mm 10,1 km/h (2 Bft) NO 45 0 min 9,9 C 13,1 km/h (3 Bft)
10.05.2016 15:53 18,3 C 19,2 C 58 % 1011,8 hPa 0,0 mm 10,1 km/h (2 Bft) NO 45 0 min 9,9 C 13,1 km/h (3 Bft)
10.05.2016 15:55 18,3 C 19,2 C 58 % 1011,8 hPa 0,0 mm 10,1 km/h (2 Bft) NO 45 0 min 9,9 C 13,1 km/h (3 Bft)
10.05.2016 16:00 18,1 C 18,7 C 58 % 1011,8 hPa 0,0 mm 9,2 km/h (2 Bft) NW 315 0 min 9,7 C 9,2 km/h (2 Bft)
10.05.2016 16:05 18,0 C 18,6 C 59 % 1011,8 hPa 0,0 mm 8,3 km/h (2 Bft) NW 315 0 min 9,9 C 21,2 km/h (4 Bft)
10.05.2016 16:10 18,0 C 18,1 C 59 % 1011,8 hPa 0,0 mm 10,1 km/h (2 Bft) NW 315 0 min 9,9 C 16,7 km/h (3 Bft)
10.05.2016 16:15 17,2 C 17,1 C 62 % 1011,9 hPa 0,0 mm 12,2 km/h (2 Bft) NW 315 0 min 9,9 C 8,3 km/h (2 Bft)
10.05.2016 16:20 16,8 C 16,6 C 65 % 1011,9 hPa 0,0 mm 11,3 km/h (2 Bft) W-NW 292 0 min 10,2 C 14,9 km/h (3 Bft)
10.05.2016 16:25 16,2 C 15,9 C 65 % 1011,9 hPa 0,0 mm 9,8 km/h (2 Bft) W-NW 292 0 min 9,6 C 11,6 km/h (2 Bft)
10.05.2016 16:30 15,7 C 15,4 C 66 % 1011,9 hPa 0,0 mm 8,6 km/h (2 Bft) NW 315 0 min 9,4 C 5,1 km/h (1 Bft)
10.05.2016 16:35 15,0 C 14,6 C 66 % 1012,1 hPa 0,0 mm 5,1 km/h (1 Bft) W-SW 247 0 min 8,7 C 0,0 km/h (0 Bft)
10.05.2016 16:40 14,7 C 14,2 C 68 % 1012,1 hPa 0,0 mm 2,7 km/h (1 Bft) S 180 0 min 8,9 C 8,3 km/h (2 Bft)
10.05.2016 16:45 14,3 C 13,8 C 70 % 1012,1 hPa 0,0 mm 4,8 km/h (1 Bft) S 180 0 min 8,9 C 7,7 km/h (2 Bft)
10.05.2016 16:50 14,1 C 13,6 C 72 % 1012,1 hPa 0,7 mm 6,9 km/h (2 Bft) W-SW 247 0 min 9,1 C 10,7 km/h (2 Bft)
10.05.2016 16:55 13,5 C 13,1 C 78 % 1012,8 hPa 0,0 mm 5,7 km/h (1 Bft) SO 135 0 min 9,7 C 4,5 km/h (1 Bft)
10.05.2016 17:00 13,3 C 13,0 C 79 % 1012,8 hPa 0,0 mm 3,6 km/h (1 Bft) NO 45 0 min 9,7 C 0,0 km/h (0 Bft)
10.05.2016 17:05 13,1 C 12,8 C 80 % 1012,8 hPa 0,7 mm 0,9 km/h (0 Bft) W-SW 247 0 min 9,7 C 0,0 km/h (0 Bft)
10.05.2016 17:10 13,0 C 12,7 C 79 % 1012,8 hPa 0,7 mm 0,3 km/h (0 Bft) O-SO 112 0 min 9,4 C 3,3 km/h (1 Bft)
10.05.2016 17:15 12,9 C 12,7 C 81 % 1012,1 hPa 0,0 mm 1,8 km/h (1 Bft) SO 135 0 min 9,7 C 0,0 km/h (0 Bft)
10.05.2016 17:20 13,0 C 12,8 C 82 % 1012,1 hPa 0,7 mm 2,4 km/h (1 Bft) S-SO 157 0 min 10,0 C 7,2 km/h (2 Bft)
10.05.2016 17:25 13,1 C 13,0 C 77 % 1012,1 hPa 0,0 mm 5,4 km/h (1 Bft) S-SW 202 0 min 9,2 C 12,8 km/h (3 Bft)
10.05.2016 17:30 13,1 C 13,1 C 77 % 1012,1 hPa 0,0 mm 7,7 km/h (2 Bft) W-SW 247 0 min 9,2 C 5,7 km/h (1 Bft)
10.05.2016 17:35 13,4 C 13,7 C 78 % 1012,2 hPa 0,0 mm 4,2 km/h (1 Bft) O-NO 67 0 min 9,6 C 0,0 km/h (0 Bft)
10.05.2016 17:40 13,7 C 14,1 C 78 % 1012,2 hPa 0,0 mm 0,6 km/h (0 Bft) O-NO 67 0 min 9,9 C 0,0 km/h (0 Bft)
10.05.2016 17:45 13,9 C 14,6 C 78 % 1012,2 hPa 0,0 mm 0,3 km/h (0 Bft) S-SW 202 0 min 10,1 C 0,0 km/h (0 Bft)
10.05.2016 17:50 14,2 C 15,1 C 78 % 1012,2 hPa 0,0 mm 0,3 km/h (0 Bft) N-NO 22 0 min 10,4 C 0,0 km/h (0 Bft)
10.05.2016 17:55 14,5 C 15,6 C 78 % 1012,1 hPa 0,0 mm 0,3 km/h (0 Bft) NO 45 0 min 10,7 C 0,0 km/h (0 Bft)
10.05.2016 18:00 14,6 C 15,9 C 78 % 1012,1 hPa 0,0 mm 0,3 km/h (0 Bft) N-NW 337 0 min 10,8 C 0,0 km/h (0 Bft)
10.05.2016 18:05 14,9 C 16,7 C 77 % 1012,1 hPa 0,0 mm 0,0 km/h (0 Bft) SO 135 0 min 10,9 C 0,0 km/h (0 Bft)
10.05.2016 18:10 15,0 C 16,9 C 77 % 1012,1 hPa 0,0 mm 0,0 km/h (0 Bft) NO 45 0 min 11,0 C 0,0 km/h (0 Bft)
10.05.2016 18:15 15,3 C 17,5 C 77 % 1011,8 hPa 0,0 mm 0,0 km/h (0 Bft) NW 315 0 min 11,3 C 0,0 km/h (0 Bft)
10.05.2016 18:20 15,6 C 17,9 C 76 % 1011,8 hPa 0,0 mm 0,6 km/h (0 Bft) W-NW 292 0 min 11,4 C 3,9 km/h (1 Bft)
10.05.2016 18:25 15,8 C 18,3 C 76 % 1011,8 hPa 0,0 mm 1,5 km/h (1 Bft) N-NO 22 0 min 11,6 C 4,5 km/h (1 Bft)
10.05.2016 18:30 15,6 C 18,0 C 76 % 1011,8 hPa 0,0 mm 1,2 km/h (1 Bft) N 360 5 min 11,4 C 0,0 km/h (0 Bft)
10.05.2016 18:35 15,0 C 17,0 C 76 % 1011,8 hPa 0,0 mm 0,3 km/h (0 Bft) N-NO 22 0 min 10,8 C 0,0 km/h (0 Bft)
10.05.2016 18:40 14,7 C 16,5 C 77 % 1011,8 hPa 0,0 mm 0,0 km/h (0 Bft) O-NO 67 0 min 10,7 C 0,0 km/h (0 Bft)
10.05.2016 18:45 14,4 C 15,9 C 78 % 1011,8 hPa 0,0 mm 0,0 km/h (0 Bft) O-SO 112 0 min 10,6 C 0,0 km/h (0 Bft)
10.05.2016 18:50 14,2 C 15,4 C 79 % 1011,8 hPa 0,0 mm 0,0 km/h (0 Bft) O-SO 112 0 min 10,6 C 0,0 km/h (0 Bft)
10.05.2016 18:52 14,0 C 14,8 C 78 % 1011,7 hPa 0,0 mm 0,0 km/h (0 Bft) N-NO 22 0 min 10,2 C 0,0 km/h (0 Bft)
10.05.2016 18:54 14,0 C 14,8 C 78 % 1011,7 hPa 0,0 mm 0,0 km/h (0 Bft) N-NO 22 0 min 10,2 C 0,0 km/h (0 Bft)
10.05.2016 18:55 14,0 C 14,8 C 78 % 1011,7 hPa 0,0 mm 0,0 km/h (0 Bft) N-NO 22 0 min 10,2 C 0,0 km/h (0 Bft)
10.05.2016 19:00 13,9 C 14,5 C 79 % 1011,7 hPa 0,0 mm 0,0 km/h (0 Bft) O-NO 67 0 min 10,3 C 0,0 km/h (0 Bft)
10.05.2016 19:05 13,7 C 14,1 C 79 % 1011,7 hPa 0,0 mm 0,0 km/h (0 Bft) O 90 0 min 10,1 C 0,0 km/h (0 Bft)
10.05.2016 19:10 13,6 C 14,0 C 79 % 1011,7 hPa 0,0 mm 0,0 km/h (0 Bft) NO 45 0 min 10,0 C 0,0 km/h (0 Bft)
10.05.2016 19:15 13,5 C 13,8 C 77 % 1011,6 hPa 0,0 mm 0,0 km/h (0 Bft) O 90 0 min 9,5 C 0,0 km/h (0 Bft)
10.05.2016 19:20 13,5 C 13,8 C 77 % 1011,6 hPa 0,0 mm 0,0 km/h (0 Bft) O-NO 67 0 min 9,5 C 0,0 km/h (0 Bft)
10.05.2016 19:25 13,5 C 13,8 C 77 % 1011,6 hPa 0,0 mm 0,0 km/h (0 Bft) N-NO 22 0 min 9,5 C 0,0 km/h (0 Bft)
10.05.2016 19:30 13,5 C 13,8 C 78 % 1011,6 hPa 0,0 mm 0,0 km/h (0 Bft) O-NO 67 0 min 9,7 C 0,0 km/h (0 Bft)
10.05.2016 19:35 13,5 C 13,7 C 78 % 1011,6 hPa 0,0 mm 0,0 km/h (0 Bft) N-NO 22 0 min 9,7 C 0,0 km/h (0 Bft)
10.05.2016 19:40 13,4 C 13,7 C 78 % 1011,6 hPa 0,0 mm 0,0 km/h (0 Bft) NO 45 0 min 9,6 C 0,0 km/h (0 Bft)
10.05.2016 19:45 13,4 C 13,5 C 78 % 1011,6 hPa 0,0 mm 0,0 km/h (0 Bft) NO 45 0 min 9,6 C 0,0 km/h (0 Bft)
10.05.2016 19:50 13,4 C 14,2 C 78 % 1011,6 hPa 0,0 mm 0,0 km/h (0 Bft) W 270 0 min 9,6 C 0,0 km/h (0 Bft)
10.05.2016 19:55 13,5 C 14,8 C 78 % 1011,4 hPa 0,0 mm 0,0 km/h (0 Bft) W 270 0 min 9,7 C 0,0 km/h (0 Bft)
10.05.2016 20:00 13,4 C 14,9 C 80 % 1011,4 hPa 0,0 mm 0,0 km/h (0 Bft) O 90 0 min 10,0 C 0,0 km/h (0 Bft)
10.05.2016 20:05 13,1 C 14,6 C 80 % 1011,4 hPa 0,0 mm 0,0 km/h (0 Bft) N-NW 337 0 min 9,7 C 0,0 km/h (0 Bft)
10.05.2016 20:10 12,9 C 14,5 C 81 % 1011,4 hPa 0,0 mm 0,0 km/h (0 Bft) N-NO 22 0 min 9,7 C 0,0 km/h (0 Bft)
10.05.2016 20:15 12,6 C 14,1 C 81 % 1011,3 hPa 0,0 mm 0,0 km/h (0 Bft) O-SO 112 0 min 9,4 C 0,0 km/h (0 Bft)
10.05.2016 20:20 12,4 C 13,8 C 81 % 1011,3 hPa 0,0 mm 0,0 km/h (0 Bft) NO 45 0 min 9,2 C 0,0 km/h (0 Bft)
10.05.2016 20:25 12,1 C 13,3 C 80 % 1011,3 hPa 0,0 mm 0,0 km/h (0 Bft) O-NO 67 0 min 8,8 C 0,0 km/h (0 Bft)
10.05.2016 20:30 11,9 C 12,9 C 81 % 1011,3 hPa 0,0 mm 0,0 km/h (0 Bft) O-NO 67 0 min 8,7 C 0,0 km/h (0 Bft)
10.05.2016 20:35 11,6 C 12,2 C 80 % 1011,5 hPa 0,0 mm 0,0 km/h (0 Bft) W 270 0 min 8,3 C 0,0 km/h (0 Bft)
10.05.2016 20:40 11,5 C 11,6 C 81 % 1011,5 hPa 0,0 mm 0,0 km/h (0 Bft) NO 45 0 min 8,4 C 0,0 km/h (0 Bft)
10.05.2016 20:45 11,2 C 11,1 C 81 % 1011,5 hPa 0,0 mm 0,0 km/h (0 Bft) O 90 0 min 8,1 C 0,0 km/h (0 Bft)
10.05.2016 20:50 11,2 C 11,0 C 82 % 1011,5 hPa 0,0 mm 0,0 km/h (0 Bft) O-SO 112 0 min 8,2 C 0,0 km/h (0 Bft)
10.05.2016 20:55 11,1 C 10,9 C 83 % 1011,5 hPa 0,0 mm 0,0 km/h (0 Bft) N-NO 22 0 min 8,3 C 0,0 km/h (0 Bft)
10.05.2016 21:00 10,8 C 10,6 C 83 % 1011,5 hPa 0,0 mm 0,0 km/h (0 Bft) N-NO 22 0 min 8,0 C 0,0 km/h (0 Bft)
10.05.2016 21:05 10,6 C 10,3 C 83 % 1011,5 hPa 0,0 mm 0,0 km/h (0 Bft) W 270 0 min 7,8 C 0,0 km/h (0 Bft)
10.05.2016 21:10 10,5 C 10,2 C 83 % 1011,5 hPa 0,0 mm 0,0 km/h (0 Bft) N-NO 22 0 min 7,7 C 0,0 km/h (0 Bft)
10.05.2016 21:15 10,3 C 10,0 C 83 % 1011,7 hPa 0,0 mm 0,0 km/h (0 Bft) O 90 0 min 7,5 C 0,0 km/h (0 Bft)
10.05.2016 21:20 10,6 C 10,2 C 85 % 1011,7 hPa 0,0 mm 0,0 km/h (0 Bft) O 90 0 min 8,2 C 0,0 km/h (0 Bft)
10.05.2016 21:25 10,1 C 9,9 C 85 % 1011,7 hPa 0,0 mm 0,0 km/h (0 Bft) W 270 0 min 7,7 C 0,0 km/h (0 Bft)
10.05.2016 21:30 10,0 C 9,8 C 85 % 1011,7 hPa 0,0 mm 0,0 km/h (0 Bft) NW 315 0 min 7,6 C 0,0 km/h (0 Bft)
10.05.2016 21:35 10,1 C 9,8 C 85 % 1011,5 hPa 0,0 mm 0,0 km/h (0 Bft) NW 315 0 min 7,7 C 0,0 km/h (0 Bft)
10.05.2016 21:40 10,4 C 10,0 C 86 % 1011,5 hPa 0,0 mm 0,0 km/h (0 Bft) N-NW 337 0 min 8,2 C 0,0 km/h (0 Bft)
10.05.2016 21:45 9,9 C 9,7 C 86 % 1011,5 hPa 0,0 mm 0,0 km/h (0 Bft) N-NW 337 0 min 7,7 C 0,0 km/h (0 Bft)
10.05.2016 21:50 9,8 C 9,5 C 86 % 1011,5 hPa 0,0 mm 0,0 km/h (0 Bft) NW 315 0 min 7,6 C 0,0 km/h (0 Bft)
10.05.2016 21:52 9,5 C 9,3 C 85 % 1011,4 hPa 0,0 mm 0,0 km/h (0 Bft) N-NW 337 0 min 7,1 C 0,0 km/h (0 Bft)
10.05.2016 21:55 9,5 C 9,3 C 85 % 1011,4 hPa 0,0 mm 0,0 km/h (0 Bft) N-NW 337 0 min 7,1 C 0,0 km/h (0 Bft)
10.05.2016 22:00 9,5 C 9,3 C 86 % 1011,4 hPa 0,0 mm 0,0 km/h (0 Bft) SW 225 0 min 7,3 C 0,0 km/h (0 Bft)
10.05.2016 22:05 9,7 C 9,4 C 86 % 1011,4 hPa 0,0 mm 0,0 km/h (0 Bft) S-SW 202 0 min 7,5 C 0,0 km/h (0 Bft)
10.05.2016 22:10 9,4 C 9,2 C 86 % 1011,4 hPa 0,0 mm 0,0 km/h (0 Bft) N-NO 22 0 min 7,2 C 0,0 km/h (0 Bft)
10.05.2016 22:15 9,3 C 9,1 C 86 % 1011,5 hPa 0,0 mm 0,0 km/h (0 Bft) S-SO 157 0 min 7,1 C 0,0 km/h (0 Bft)
10.05.2016 22:20 9,2 C 9,0 C 86 % 1011,5 hPa 0,0 mm 0,0 km/h (0 Bft) S-SW 202 0 min 7,0 C 0,0 km/h (0 Bft)
10.05.2016 22:25 9,2 C 9,0 C 86 % 1011,5 hPa 0,0 mm 0,0 km/h (0 Bft) S-SO 157 0 min 7,0 C 0,0 km/h (0 Bft)
10.05.2016 22:30 9,4 C 9,1 C 87 % 1011,5 hPa 0,0 mm 0,3 km/h (0 Bft) SW 225 0 min 7,3 C 3,0 km/h (1 Bft)
10.05.2016 22:35 9,4 C 9,2 C 87 % 1011,6 hPa 0,0 mm 0,3 km/h (0 Bft) N-NW 337 0 min 7,3 C 0,0 km/h (0 Bft)
10.05.2016 22:40 9,3 C 9,1 C 87 % 1011,6 hPa 0,0 mm 0,3 km/h (0 Bft) N-NO 22 0 min 7,2 C 0,0 km/h (0 Bft)
10.05.2016 22:45 9,4 C 9,2 C 87 % 1011,6 hPa 0,0 mm 0,0 km/h (0 Bft) N-NW 337 0 min 7,3 C 0,0 km/h (0 Bft)
10.05.2016 22:50 9,4 C 9,2 C 87 % 1011,6 hPa 0,0 mm 0,0 km/h (0 Bft) O-SO 112 0 min 7,3 C 0,0 km/h (0 Bft)
10.05.2016 22:55 9,4 C 9,2 C 88 % 1011,6 hPa 0,0 mm 0,0 km/h (0 Bft) O-NO 67 0 min 7,5 C 0,0 km/h (0 Bft)
10.05.2016 23:00 9,4 C 9,2 C 88 % 1011,6 hPa 0,0 mm 0,0 km/h (0 Bft) S 180 0 min 7,5 C 0,0 km/h (0 Bft)
10.05.2016 23:05 9,0 C 8,9 C 88 % 1011,6 hPa 0,0 mm 0,0 km/h (0 Bft) W 270 0 min 7,1 C 0,0 km/h (0 Bft)
10.05.2016 23:10 8,9 C 8,8 C 88 % 1011,6 hPa 0,0 mm 0,0 km/h (0 Bft) W 270 0 min 7,0 C 0,0 km/h (0 Bft)
10.05.2016 23:15 8,9 C 8,7 C 88 % 1011,1 hPa 0,0 mm 0,0 km/h (0 Bft) NO 45 0 min 7,0 C 0,0 km/h (0 Bft)
10.05.2016 23:20 8,5 C 8,4 C 88 % 1011,1 hPa 0,0 mm 0,0 km/h (0 Bft) NO 45 0 min 6,6 C 0,0 km/h (0 Bft)
10.05.2016 23:25 8,3 C 8,2 C 87 % 1011,1 hPa 0,0 mm 0,0 km/h (0 Bft) W 270 0 min 6,3 C 0,0 km/h (0 Bft)
10.05.2016 23:30 8,2 C 8,1 C 87 % 1011,1 hPa 0,0 mm 0,0 km/h (0 Bft) S 180 0 min 6,2 C 0,0 km/h (0 Bft)
10.05.2016 23:35 8,1 C 7,9 C 87 % 1010,8 hPa 0,0 mm 0,0 km/h (0 Bft) O 90 0 min 6,1 C 0,0 km/h (0 Bft)
10.05.2016 23:40 8,0 C 7,9 C 87 % 1010,8 hPa 0,0 mm 0,0 km/h (0 Bft) N-NW 337 0 min 6,0 C 0,0 km/h (0 Bft)
10.05.2016 23:45 8,5 C 8,2 C 88 % 1010,8 hPa 0,0 mm 0,0 km/h (0 Bft) NW 315 0 min 6,6 C 0,0 km/h (0 Bft)
10.05.2016 23:50 8,7 C 8,3 C 88 % 1010,8 hPa 0,0 mm 0,0 km/h (0 Bft) NW 315 0 min 6,8 C 0,0 km/h (0 Bft)
10.05.2016 23:55 8,7 C 8,4 C 88 % 1010,8 hPa 0,0 mm 0,0 km/h (0 Bft) W-SW 247 0 min 6,8 C 0,0 km/h (0 Bft)
_ Min-Zeit 02:10 02:10 13:30 23:55 - 23:55 - - - 01:55 23:55
Minimum _ 7,9 C 7,8 C 48 % 1010,8 hPa - 0,0 km/h (0 Bft) - - - 2,8 C 0,0 km/h (0 Bft)
_ Max-Zeit 13:25 13:05 23:55 00:10 17:20 16:15 - - 18:30 18:25 12:45
Maximum _ 20,6 C 23,7 C 88 % 1013,6 hPa 0,7 mm 12,2 km/h
NW (2 Bft)
- - 5 min 11,6 C 22,7 km/h
N-NO (4 Bft)
Durchschnitt _ 13,3 C 14,4 C 69 % 1011,6 hPa #2,7 mm 2,3 km/h (1 Bft) N-NO - #2:10 h 7,6 C 3,0 km/h (1 Bft)